Home   Weather   Libreville   Past weeks
Flag for Gabon

Past Weather in Libreville, Gabon — Yesterday and Last 2 Weeks

Now
88 °F

Passing clouds.


Feels Like: 98 °F
Forecast: 90 / 79 °F
Wind: 9 mph from South

Location: Libreville Airport

Current Time: Mar 26, 2019 at 12:24:25 pm

Latest Report: Mar 26, 2019 at 12:00 pm


Visibility: N/A

Pressure: 29.86 "Hg

Humidity: 66%

Dew Point: 75 °F

Location of LibrevilleLocation

Past Weather in Libreville — Graph

°F

Libreville Temperature Yesterday

Maximum temperature yesterday: 86 °F (at 3:00 pm)
Minimum temperature yesterday: 73 °F (at 12:00 am)
Average temperature yesterday: 79 °F

High & Low Weather Summary for the Past Weeks

 TemperatureHumidityPressure
High90 °F (Mar 11, 1:00 pm)100% (Mar 14, 11:00 am)29.95 "Hg (Mar 14, 11:00 am)
Low72 °F (Mar 24, 2:30 pm)66% (Mar 15, 3:30 pm)29.68 "Hg (Mar 20, 4:00 pm)
Average82 °F85%29.81 "Hg
* Reported Mar 11 11:00 am — Mar 26 11:00 am, Libreville. Weather by CustomWeather, © 2019

Note: Actual official high and low records may vary slightly from our data, if they occured in-between our weather recording intervals... More about our weather records

Advertising

Libreville Weather History for the Previous 24 Hours

Scroll right to see more
 ConditionsComfort  
Time TempWeatherWind HumidityBarometerVisibility
11:00 am
Tue, Mar 26
86 °FPassing clouds.10 mph75%29.89 "HgN/A
10:30 am84 °FPassing clouds.10 mph79%29.92 "HgN/A
10:00 am84 °FPassing clouds.10 mph79%29.92 "HgN/A
9:30 am86 °FPassing clouds.7 mph70%29.92 "HgN/A
9:00 am84 °FPassing clouds.12 mph79%29.92 "HgN/A
8:00 am81 °FPassing clouds.12 mph94%29.92 "Hg5 mi
6:30 am79 °FPassing clouds.2 mph89%29.86 "Hg5 mi
6:00 am79 °FPassing clouds.No wind89%29.86 "Hg4 mi
5:30 am79 °FPassing clouds.No wind89%29.83 "Hg5 mi
5:00 am77 °FPassing clouds.No wind94%29.83 "Hg5 mi
4:30 am77 °FPassing clouds.No windN/A29.83 "Hg6 mi
4:00 am77 °FPassing clouds.No wind89%29.83 "Hg6 mi
3:30 am79 °FPassing clouds.3 mph84%29.86 "Hg6 mi
3:00 am79 °FPassing clouds.6 mph84%29.86 "HgN/A
2:30 am79 °FPassing clouds.6 mph89%29.89 "HgN/A
2:00 am79 °FPassing clouds.6 mph89%29.89 "HgN/A
1:30 am79 °FPassing clouds.6 mph89%29.89 "HgN/A
1:00 am79 °FPassing clouds.6 mph89%29.89 "HgN/A
12:30 am79 °FPassing clouds.6 mph89%29.89 "HgN/A
12:00 am79 °FPassing clouds.6 mph89%29.89 "HgN/A
11:30 pm
Mon, Mar 25
79 °FPassing clouds.6 mph89%29.89 "HgN/A
11:00 pm79 °FPassing clouds.6 mph89%29.89 "HgN/A
10:30 pm81 °FPassing clouds.6 mph84%29.89 "HgN/A
8:30 pm82 °FPassing clouds.6 mph79%29.83 "HgN/A
8:00 pm82 °FPassing clouds.6 mph79%29.83 "HgN/A
7:30 pm82 °FPassing clouds.5 mph79%29.83 "HgN/A
7:00 pm82 °FPassing clouds.6 mph74%29.83 "HgN/A
6:30 pm84 °FPassing clouds.5 mph74%29.83 "HgN/A
6:00 pm84 °FPassing clouds.6 mph74%29.80 "HgN/A
5:30 pm84 °FPassing clouds.7 mph74%29.80 "HgN/A
5:00 pm86 °FPassing clouds.7 mph70%29.80 "HgN/A
4:30 pm86 °FPassing clouds.8 mph70%29.80 "HgN/A
4:00 pm86 °FPassing clouds.6 mph75%29.80 "HgN/A
3:30 pm86 °FPassing clouds.8 mph75%29.80 "HgN/A
3:00 pm86 °FScattered clouds.8 mph75%29.80 "HgN/A
2:30 pm84 °FScattered clouds.7 mph79%29.83 "HgN/A
2:00 pm84 °FScattered clouds.7 mph74%29.83 "HgN/A
1:30 pm84 °FScattered clouds.5 mph74%29.86 "HgN/A
1:00 pm84 °FScattered clouds.6 mph74%29.86 "HgN/A
12:30 pm82 °FScattered clouds.6 mph79%29.89 "HgN/A
12:00 pm82 °FScattered clouds.6 mph79%29.89 "HgN/A
Weather by CustomWeather, © 2019

See weather overview